Location: Godiavel Galaoual
(15.2485°N, 12.6604°W)
Time: 17:37:40
(UTC+00:00)

X-37B - Visible Passes

Search period start: 15 June 2021 00:00
Search period end: 25 June 2021 00:00
Orbit: 386 x 389 km, 45.0° (Epoch: 10 June)

Date Brightness Start Highest point End Pass type
(mag) Time Alt. Az. Time Alt. Az. Time Alt. Az.
20 Jun 1.9 20:05:41 10° S 20:08:11 21° SE 20:09:48 15° E visible
21 Jun 3.2 05:53:46 10° NNW 05:56:29 26° NE 05:59:10 10° ESE visible
21 Jun 1.9 20:43:16 10° WSW 20:46:18 41° NW 20:49:19 10° NNE visible
22 Jun 4.1 04:56:56 10° NNE 04:58:01 11° NE 04:59:06 10° ENE visible
22 Jun 0.6 19:44:51 10° SW 19:47:58 62° SE 19:51:06 10° NE visible
23 Jun 0.7 05:33:14 10° NW 05:36:22 75° NE 05:39:31 10° SE visible
23 Jun 3.8 20:24:06 10° W 20:26:14 17° NW 20:28:23 10° N visible
24 Jun 2.8 04:35:26 11° NNW 04:38:00 26° NE 04:40:43 10° ESE visible
